When you browse on this site, cookies collect data to enhance your experience and personalize the content and advertising you see.
Visit our Privacy Policy to learn more. By continuing to use the site, you agree to this use of cookies and data.
EN

Hourly Weather Bristol

Today, 7 July, Tuesday

Time Temperature Precipitation Wind Pressure Humidity
00:00 +10°C° 0 mm 2 mps 766 mmHg 88%
01:00 +10°C° 0 mm 2 mps 765 mmHg 89%
02:00 +10°C° 0 mm 2 mps 765 mmHg 89%
03:00 +10°C° 0 mm 2 mps 765 mmHg 89%
04:00 +12°C° 0 mm 2 mps 765 mmHg 89%
05:00 +12°C° 0 mm 3 mps 764 mmHg 88%
06:00 +13°C° 0 mm 3 mps 764 mmHg 88%
07:00 +13°C° 0 mm 3 mps 764 mmHg 85%
08:00 +14°C° 0 mm 4 mps 764 mmHg 82%
09:00 +15°C° 0 mm 4 mps 764 mmHg 79%
10:00 +16°C° 0 mm 5 mps 764 mmHg 74%
11:00 +17°C° 0 mm 5 mps 763 mmHg 70%
12:00 +19°C° 0 mm 6 mps 763 mmHg 65%
13:00 +19°C° 0 mm 6 mps 763 mmHg 66%
14:00 +17°C° 0 mm 6 mps 763 mmHg 68%
15:00 +17°C° 0 mm 6 mps 762 mmHg 69%
16:00 +16°C° 0.1 mm 6 mps 762 mmHg 75%
17:00 +16°C° 0.1 mm 6 mps 761 mmHg 80%
18:00 +15°C° 0.1 mm 6 mps 761 mmHg 86%
19:00 +15°C° 0.2 mm 6 mps 761 mmHg 88%
20:00 +15°C° 0.2 mm 7 mps 760 mmHg 90%
21:00 +15°C° 0.2 mm 7 mps 760 mmHg 93%
22:00 +15°C° 0.1 mm 7 mps 760 mmHg 93%
23:00 +15°C° 0.1 mm 7 mps 760 mmHg 94%

Tomorrow, 8 July, Wednesday

Time Temperature Precipitation Wind Pressure Humidity
00:00 +15°C° 0.1 mm 6 mps 759 mmHg 94%
01:00 +15°C° 0.1 mm 6 mps 759 mmHg 94%
02:00 +16°C° 0.1 mm 6 mps 759 mmHg 95%
03:00 +16°C° 0.1 mm 6 mps 759 mmHg 95%
04:00 +16°C° 0.3 mm 6 mps 759 mmHg 95%
05:00 +16°C° 0.3 mm 5 mps 759 mmHg 96%
06:00 +17°C° 0.3 mm 4 mps 759 mmHg 96%
07:00 +17°C° 0.5 mm 4 mps 759 mmHg 96%
08:00 +17°C° 0.5 mm 3 mps 759 mmHg 96%
09:00 +17°C° 0.5 mm 3 mps 760 mmHg 97%
10:00 +17°C° 0.3 mm 3 mps 760 mmHg 96%
11:00 +17°C° 0.3 mm 3 mps 760 mmHg 96%
12:00 +17°C° 0.3 mm 3 mps 760 mmHg 95%
13:00 +18°C° 0.1 mm 3 mps 760 mmHg 93%
14:00 +18°C° 0.1 mm 4 mps 760 mmHg 92%
15:00 +18°C° 0.1 mm 4 mps 760 mmHg 90%
16:00 +18°C° 0 mm 4 mps 760 mmHg 90%
17:00 +18°C° 0 mm 4 mps 760 mmHg 90%
18:00 +17°C° 0 mm 5 mps 760 mmHg 90%
19:00 +18°C° 0.1 mm 4 mps 760 mmHg 92%
20:00 +17°C° 0.1 mm 4 mps 760 mmHg 93%
21:00 +17°C° 0.1 mm 4 mps 760 mmHg 95%
22:00 +17°C° 0.1 mm 4 mps 759 mmHg 95%
23:00 +16°C° 0.1 mm 5 mps 759 mmHg 94%

Day after tomorrow, 9 July, Thursday

Time Temperature Precipitation Wind Pressure Humidity
00:00 +16°C° 0.1 mm 5 mps 759 mmHg 94%
01:00 +15°C° 0.3 mm 5 mps 759 mmHg 94%
02:00 +15°C° 0.3 mm 6 mps 758 mmHg 94%
03:00 +15°C° 0.3 mm 6 mps 758 mmHg 95%
04:00 +15°C° 0.6 mm 6 mps 758 mmHg 95%
05:00 +15°C° 0.6 mm 6 mps 758 mmHg 95%
06:00 +15°C° 0.6 mm 5 mps 757 mmHg 95%
07:00 +16°C° 0.1 mm 5 mps 757 mmHg 95%
08:00 +16°C° 0.1 mm 5 mps 757 mmHg 94%
09:00 +17°C° 0.1 mm 5 mps 757 mmHg 94%
10:00 +17°C° 0.1 mm 5 mps 757 mmHg 92%
11:00 +19°C° 0.1 mm 6 mps 757 mmHg 90%
12:00 +20°C° 0.1 mm 6 mps 757 mmHg 88%
13:00 +19°C° 0.2 mm 6 mps 756 mmHg 89%
14:00 +19°C° 0.2 mm 6 mps 756 mmHg 91%
15:00 +17°C° 0.2 mm 6 mps 756 mmHg 92%
16:00 +17°C° 0.1 mm 6 mps 756 mmHg 92%
17:00 +17°C° 0.1 mm 6 mps 756 mmHg 93%
18:00 +17°C° 0.1 mm 6 mps 756 mmHg 94%
19:00 +16°C° 0.1 mm 5 mps 756 mmHg 94%
20:00 +16°C° 0.1 mm 5 mps 757 mmHg 94%
21:00 +15°C° 0.1 mm 4 mps 757 mmHg 94%
22:00 +15°C° 0 mm 4 mps 757 mmHg 93%
23:00 +14°C° 0 mm 4 mps 758 mmHg 92%

10 July, Friday

Time Temperature Precipitation Wind Pressure Humidity
00:00 +13°C° 0 mm 4 mps 758 mmHg 90%
01:00 +12°C° 0 mm 4 mps 758 mmHg 90%
02:00 +11°C° 0 mm 4 mps 759 mmHg 89%
03:00 +10°C° 0 mm 4 mps 759 mmHg 88%
04:00 +10°C° 0 mm 4 mps 760 mmHg 86%
05:00 +9°C° 0 mm 5 mps 760 mmHg 85%
06:00 +9°C° 0 mm 5 mps 761 mmHg 83%
07:00 +11°C° 0 mm 6 mps 761 mmHg 78%
08:00 +12°C° 0 mm 7 mps 762 mmHg 73%
09:00 +14°C° 0 mm 7 mps 762 mmHg 68%
10:00 +15°C° 0 mm 7 mps 763 mmHg 67%
11:00 +16°C° 0 mm 7 mps 763 mmHg 65%
12:00 +17°C° 0 mm 7 mps 764 mmHg 64%
13:00 +17°C° 0 mm 6 mps 764 mmHg 63%
14:00 +19°C° 0 mm 6 mps 764 mmHg 62%
15:00 +19°C° 0 mm 6 mps 764 mmHg 61%
16:00 +19°C° 0 mm 5 mps 764 mmHg 63%
17:00 +17°C° 0 mm 5 mps 764 mmHg 66%
18:00 +16°C° 0 mm 5 mps 765 mmHg 69%
19:00 +15°C° 0 mm 4 mps 765 mmHg 73%
20:00 +13°C° 0 mm 3 mps 766 mmHg 77%
21:00 +12°C° 0 mm 3 mps 766 mmHg 81%
22:00 +12°C° 0 mm 2 mps 766 mmHg 82%
23:00 +10°C° 0 mm 2 mps 767 mmHg 84%

11 July, Saturday

Time Temperature Precipitation Wind Pressure Humidity
00:00 +10°C° 0 mm 1 mps 767 mmHg 85%
01:00 +10°C° 0 mm 1 mps 767 mmHg 85%
02:00 +10°C° 0 mm 1 mps 767 mmHg 85%
03:00 +9°C° 0 mm 1 mps 767 mmHg 85%
04:00 +10°C° 0 mm 1 mps 767 mmHg 83%
05:00 +10°C° 0 mm 0 mps 767 mmHg 81%
06:00 +11°C° 0 mm 0 mps 767 mmHg 78%
07:00 +14°C° 0 mm 1 mps 768 mmHg 74%
08:00 +15°C° 0 mm 1 mps 768 mmHg 69%
09:00 +18°C° 0 mm 1 mps 768 mmHg 64%
10:00 +18°C° 0 mm 2 mps 768 mmHg 62%
11:00 +18°C° 0 mm 2 mps 768 mmHg 60%
12:00 +19°C° 0 mm 2 mps 768 mmHg 58%
13:00 +19°C° 0 mm 2 mps 768 mmHg 59%
14:00 +19°C° 0 mm 2 mps 768 mmHg 59%
15:00 +20°C° 0 mm 2 mps 768 mmHg 59%
16:00 +19°C° 0 mm 2 mps 768 mmHg 62%
17:00 +19°C° 0 mm 2 mps 768 mmHg 65%
18:00 +19°C° 0 mm 2 mps 768 mmHg 68%
19:00 +17°C° 0 mm 2 mps 768 mmHg 73%
20:00 +16°C° 0 mm 1 mps 768 mmHg 79%
21:00 +14°C° 0 mm 1 mps 768 mmHg 84%
22:00 +14°C° 0 mm 1 mps 768 mmHg 85%
23:00 +13°C° 0 mm 1 mps 768 mmHg 86%

12 July, Sunday

Time Temperature Precipitation Wind Pressure Humidity
00:00 +12°C° 0 mm 0 mps 768 mmHg 87%
01:00 +12°C° 0 mm 1 mps 768 mmHg 87%
02:00 +12°C° 0 mm 1 mps 768 mmHg 87%
03:00 +12°C° 0 mm 1 mps 768 mmHg 87%
04:00 +13°C° 0 mm 1 mps 768 mmHg 85%
05:00 +13°C° 0 mm 1 mps 768 mmHg 83%
06:00 +14°C° 0 mm 1 mps 768 mmHg 81%
07:00 +15°C° 0 mm 1 mps 769 mmHg 76%
08:00 +18°C° 0 mm 1 mps 769 mmHg 71%
09:00 +20°C° 0 mm 1 mps 769 mmHg 66%
10:00 +21°C° 0 mm 1 mps 769 mmHg 63%
11:00 +22°C° 0 mm 1 mps 769 mmHg 59%
12:00 +23°C° 0 mm 1 mps 769 mmHg 56%
13:00 +23°C° 0 mm 1 mps 768 mmHg 55%
14:00 +23°C° 0 mm 1 mps 768 mmHg 55%
15:00 +24°C° 0 mm 1 mps 768 mmHg 54%
16:00 +23°C° 0 mm 1 mps 768 mmHg 58%
17:00 +23°C° 0 mm 1 mps 768 mmHg 61%
18:00 +21°C° 0 mm 2 mps 767 mmHg 65%
19:00 +20°C° 0 mm 2 mps 768 mmHg 70%
20:00 +19°C° 0 mm 1 mps 768 mmHg 75%
21:00 +16°C° 0 mm 1 mps 768 mmHg 80%
22:00 +15°C° 0 mm 1 mps 768 mmHg 82%
23:00 +15°C° 0 mm 1 mps 768 mmHg 83%
Show more